JBU165 KBOS-KRSW

Flight info

Callsign JBU165
Flight time N/A
Altitude 36000
Route SSOXS7 SSOXS Q167 RIFLE HEADI Q97 KALDA Q131 WAALT Y289 BAHAA HIBAC SHFTY6
Aircraft A321/M-SDE3FGHIRWY/LB1

Departure

Time N/A
Airport Boston Logan International Airport (KBOS)

Arrival

Time 2026-05-08 01:00
Airport Southwest Florida International Airport (KRSW)
Time Latitude Longitude Altitude Speed Heading
2026-05-08 00:31 28.36315 -80.63034 22269 ft 390 kts 249°
2026-05-08 00:31 28.35192 -80.65835 22166 ft 390 kts 248°
2026-05-08 00:31 28.34064 -80.68638 22057 ft 389 kts 248°
2026-05-08 00:32 28.33307 -80.70528 21987 ft 389 kts 248°
2026-05-08 00:32 28.32189 -80.73315 21879 ft 388 kts 249°
2026-05-08 00:32 28.31069 -80.76110 21774 ft 388 kts 248°
2026-05-08 00:32 28.29953 -80.78888 21669 ft 387 kts 248°
2026-05-08 00:33 28.28838 -80.81664 21567 ft 387 kts 248°
2026-05-08 00:33 28.27720 -80.84442 21457 ft 386 kts 248°
2026-05-08 00:33 28.26621 -80.87169 21357 ft 385 kts 248°
2026-05-08 00:33 28.25506 -80.89935 21252 ft 385 kts 248°
2026-05-08 00:34 28.24394 -80.92697 21154 ft 384 kts 248°
2026-05-08 00:34 28.23279 -80.95457 21055 ft 384 kts 248°
2026-05-08 00:34 28.22169 -80.98206 20951 ft 383 kts 248°
2026-05-08 00:34 28.21058 -81.00949 20849 ft 383 kts 248°
2026-05-08 00:35 28.19950 -81.03693 20751 ft 382 kts 248°
2026-05-08 00:35 28.18845 -81.06433 20649 ft 382 kts 248°
2026-05-08 00:35 28.17734 -81.09172 20543 ft 381 kts 248°
2026-05-08 00:35 28.16627 -81.11902 20449 ft 381 kts 248°
2026-05-08 00:36 28.15522 -81.14633 20345 ft 380 kts 248°
2026-05-08 00:36 28.14423 -81.17350 20245 ft 380 kts 248°
2026-05-08 00:36 28.13333 -81.20035 20140 ft 379 kts 248°
2026-05-08 00:36 28.12226 -81.22756 20042 ft 379 kts 248°
2026-05-08 00:37 28.11125 -81.25464 19974 ft 379 kts 248°
2026-05-08 00:37 28.10019 -81.28173 19975 ft 379 kts 248°
2026-05-08 00:37 28.08915 -81.30884 19994 ft 379 kts 248°
2026-05-08 00:38 28.06569 -81.36243 19999 ft 382 kts 240°
2026-05-08 00:38 28.04866 -81.38569 19712 ft 386 kts 230°
2026-05-08 00:38 28.02996 -81.40659 19372 ft 379 kts 229°
2026-05-08 00:38 28.01087 -81.42751 19112 ft 384 kts 228°
2026-05-08 00:39 27.99175 -81.44857 18944 ft 383 kts 229°
2026-05-08 00:39 27.97271 -81.46970 18822 ft 383 kts 229°
2026-05-08 00:39 27.95375 -81.49081 18710 ft 383 kts 229°
2026-05-08 00:39 27.93483 -81.51194 18607 ft 382 kts 229°
2026-05-08 00:40 27.91591 -81.53308 18501 ft 382 kts 229°
2026-05-08 00:40 27.89696 -81.55418 18394 ft 381 kts 229°
2026-05-08 00:40 27.87809 -81.57525 18290 ft 381 kts 229°
2026-05-08 00:40 27.85922 -81.59628 18175 ft 381 kts 229°
2026-05-08 00:41 27.84040 -81.61727 18053 ft 380 kts 229°
2026-05-08 00:41 27.82163 -81.63820 17933 ft 380 kts 228°
2026-05-08 00:41 27.80279 -81.65915 17818 ft 379 kts 228°
2026-05-08 00:41 27.78398 -81.68011 17696 ft 379 kts 228°
2026-05-08 00:42 27.76526 -81.70097 17579 ft 378 kts 228°
2026-05-08 00:42 27.74657 -81.72174 17470 ft 377 kts 228°
2026-05-08 00:42 27.72771 -81.74243 17329 ft 378 kts 226°
2026-05-08 00:42 27.70585 -81.75926 17216 ft 386 kts 209°
2026-05-08 00:43 27.68014 -81.76749 17068 ft 384 kts 190°
2026-05-08 00:43 27.65376 -81.76745 16946 ft 373 kts 181°
2026-05-08 00:43 27.62811 -81.76567 16835 ft 370 kts 181°
2026-05-08 00:43 27.60234 -81.76385 16719 ft 372 kts 178°
2026-05-08 00:44 27.57745 -81.75673 16600 ft 378 kts 162°
2026-05-08 00:44 27.55327 -81.74501 16508 ft 379 kts 159°
2026-05-08 00:44 27.52926 -81.73286 16404 ft 378 kts 160°
2026-05-08 00:44 27.50523 -81.72090 16289 ft 377 kts 160°
2026-05-08 00:45 27.48123 -81.70914 16193 ft 376 kts 160°
2026-05-08 00:45 27.45724 -81.69748 16089 ft 375 kts 160°
2026-05-08 00:45 27.43328 -81.68590 15990 ft 374 kts 160°
2026-05-08 00:45 27.40936 -81.67435 15947 ft 373 kts 160°
2026-05-08 00:46 27.38549 -81.66287 15952 ft 374 kts 160°
2026-05-08 00:46 27.36155 -81.65140 15962 ft 374 kts 160°
2026-05-08 00:46 27.33762 -81.63993 15783 ft 373 kts 160°
2026-05-08 00:46 27.31376 -81.62846 15259 ft 372 kts 160°
2026-05-08 00:47 27.29000 -81.61703 14746 ft 371 kts 160°
2026-05-08 00:47 27.26644 -81.60570 14330 ft 366 kts 159°
2026-05-08 00:47 27.24313 -81.59450 13845 ft 364 kts 159°
2026-05-08 00:47 27.22020 -81.58349 13366 ft 360 kts 159°
2026-05-08 00:48 27.19729 -81.57246 12871 ft 356 kts 159°
2026-05-08 00:48 27.17474 -81.56163 12558 ft 348 kts 159°
2026-05-08 00:48 27.15278 -81.55108 12364 ft 337 kts 159°
2026-05-08 00:48 27.13160 -81.54091 12209 ft 325 kts 159°
2026-05-08 00:49 27.11118 -81.53111 12049 ft 313 kts 159°
2026-05-08 00:49 27.09122 -81.52154 11662 ft 311 kts 159°
2026-05-08 00:49 27.07134 -81.51200 11241 ft 310 kts 159°
2026-05-08 00:49 27.05157 -81.50251 10879 ft 308 kts 159°
2026-05-08 00:50 27.03195 -81.49311 10516 ft 305 kts 159°
2026-05-08 00:50 27.01255 -81.48380 10181 ft 301 kts 159°
2026-05-08 00:50 26.99366 -81.47456 9849 ft 299 kts 158°
2026-05-08 00:50 26.97471 -81.46504 9414 ft 299 kts 158°
2026-05-08 00:51 26.95550 -81.45538 8995 ft 298 kts 157°
2026-05-08 00:51 26.93697 -81.44606 8637 ft 295 kts 157°
2026-05-08 00:51 26.91827 -81.43669 8218 ft 295 kts 157°
2026-05-08 00:51 26.89955 -81.42733 7841 ft 293 kts 157°
2026-05-08 00:52 26.88100 -81.41805 7454 ft 292 kts 157°
2026-05-08 00:52 26.86243 -81.40877 7061 ft 292 kts 157°
2026-05-08 00:52 26.84347 -81.40080 6671 ft 290 kts 169°
2026-05-08 00:52 26.82369 -81.40150 6315 ft 285 kts 198°
2026-05-08 00:53 26.80670 -81.41228 5931 ft 281 kts 221°
2026-05-08 00:53 26.79269 -81.42741 5586 ft 279 kts 225°
2026-05-08 00:53 26.77904 -81.44278 5224 ft 278 kts 225°
2026-05-08 00:53 26.76828 -81.45469 4934 ft 277 kts 224°
2026-05-08 00:54 26.75453 -81.46964 4589 ft 275 kts 224°
2026-05-08 00:54 26.74081 -81.48443 4224 ft 273 kts 224°
2026-05-08 00:54 26.72723 -81.49896 3975 ft 265 kts 224°
2026-05-08 00:54 26.71413 -81.51294 3645 ft 258 kts 224°
2026-05-08 00:55 26.70121 -81.52669 3235 ft 255 kts 224°
2026-05-08 00:55 26.68843 -81.54027 2873 ft 254 kts 225°
2026-05-08 00:55 26.67598 -81.55370 2678 ft 238 kts 226°
2026-05-08 00:55 26.66469 -81.56608 2633 ft 219 kts 226°
2026-05-08 00:56 26.65397 -81.57836 2584 ft 222 kts 227°
2026-05-08 00:56 26.64362 -81.59123 2453 ft 223 kts 236°
2026-05-08 00:56 26.63503 -81.60503 2298 ft 211 kts 238°
2026-05-08 00:56 26.62711 -81.61760 2295 ft 181 kts 236°
2026-05-08 00:57 26.62020 -81.62802 2268 ft 155 kts 234°
2026-05-08 00:57 26.61385 -81.63712 2020 ft 145 kts 235°
2026-05-08 00:57 26.60788 -81.64582 1765 ft 139 kts 235°
2026-05-08 00:57 26.60199 -81.65480 1559 ft 147 kts 235°
2026-05-08 00:58 26.59580 -81.66396 1488 ft 147 kts 235°
2026-05-08 00:58 26.58966 -81.67306 1397 ft 147 kts 236°
2026-05-08 00:58 26.58370 -81.68225 1287 ft 146 kts 237°
2026-05-08 00:58 26.57779 -81.69143 1116 ft 144 kts 236°
2026-05-08 00:59 26.57192 -81.70052 967 ft 143 kts 237°
2026-05-08 00:59 26.56617 -81.70931 823 ft 144 kts 235°
2026-05-08 00:59 26.56017 -81.71839 624 ft 143 kts 235°
2026-05-08 00:59 26.55428 -81.72731 398 ft 143 kts 235°
2026-05-08 01:00 26.54847 -81.73627 169 ft 141 kts 236°
2026-05-08 01:00 26.54269 -81.74514 50 ft 136 kts 235°
2026-05-08 01:00 26.53827 -81.75193 43 ft 68 kts 233°
2026-05-08 01:00 26.53628 -81.75496 42 ft 45 kts 233°
2026-05-08 01:01 26.53520 -81.75660 45 ft 16 kts 232°
2026-05-08 01:01 26.53423 -81.75741 45 ft 19 kts 197°
2026-05-08 01:01 26.53296 -81.75810 48 ft 22 kts 223°
2026-05-08 01:01 26.53164 -81.75807 48 ft 11 kts 150°
2026-05-08 01:02 26.53154 -81.75801 48 ft 0 kts 152°